Home   Weather   Thessaloniki   Past weeks

Flag for Greece Past Weather in Thessaloniki, Greece — Yesterday and Last 2 Weeks

Now
68 °F

Sunny.


Feels Like: 68 °F
Forecast: 54 / 79 °F
Wind: 7 mph from Northwest

Location: Thessaloniki Airport

Current Time: Apr 28, 2017 at 1:18:29 pm

Latest Report: Apr 28, 2017 at 12:20 pm


Visibility: 10 mi

Pressure: 30.01 "Hg

Humidity: 49%

Dew Point: 48 °F

Location of ThessalonikiLocation

Past Weather in Thessaloniki — Graph

°F

Thessaloniki Temperature Yesterday

Maximum temperature yesterday: 75 °F (at 2:50 pm)
Minimum temperature yesterday: 45 °F (at 5:50 am)
Average temperature yesterday: 60 °F

High & Low Weather Summary for the Past Weeks

 TemperatureHumidityPressure
High77 °F (Apr 14, 2:50 pm)100% (Apr 16, 7:50 am)30.24 "Hg (Apr 16, 7:50 am)
Low37 °F (Apr 22, 7:20 am)15% (Apr 24, 5:20 pm)29.71 "Hg (Apr 16, 7:50 pm)
Average58 °F54%29.98 "Hg
* Reported Apr 13 12:20 pm — Apr 28 12:20 pm, Thessaloniki, Weather by CustomWeather, © 2017

Note: Actual official high and low records may vary slightly from our data, if they occured in-between our weather recording intervals... More about our weather records

Advertising

Thessaloniki Weather History for the Previous 24 Hours

Scroll right to see more
 ConditionsComfort  
Time TempWeatherWind HumidityBarometerVisibility
12:20 pm
Fri, Apr 28
68 °FSunny.7 mph49%30.01 "Hg10 mi
11:50 am66 °FSunny.6 mph52%30.01 "Hg10 mi
11:20 am64 °FSunny.7 mph64%30.01 "Hg10 mi
10:50 am66 °FSunny.6 mph52%30.01 "Hg10 mi
10:20 am66 °FSunny.5 mph49%30.01 "Hg10 mi
9:50 am66 °FSunny.No wind52%30.01 "Hg10 mi
9:20 am63 °FSunny.1 mph56%30.01 "Hg10 mi
8:50 am63 °FSunny.1 mph56%30.01 "Hg10 mi
8:20 am54 °FSunny.3 mph72%30.01 "Hg10 mi
7:50 am54 °FSunny.3 mph72%30.01 "Hg10 mi
7:20 am50 °FSunny.5 mph82%30.01 "Hg10 mi
6:50 am48 °FSunny.5 mph82%30.01 "Hg10 mi
6:20 am48 °FClear.5 mph82%30.01 "Hg10 mi
5:50 am48 °FClear.6 mph82%30.01 "Hg10 mi
5:20 am48 °FClear.6 mph82%30.01 "Hg10 mi
4:50 am48 °FClear.6 mph82%30.01 "Hg10 mi
4:20 am50 °FClear.6 mph82%30.01 "Hg10 mi
3:50 am52 °FClear.3 mph77%30.01 "Hg10 mi
3:20 am52 °FClear.2 mph77%30.01 "Hg10 mi
2:50 am52 °FClear.1 mph77%30.01 "Hg10 mi
2:20 am52 °FClear.6 mph77%30.01 "Hg10 mi
1:50 am52 °FClear.5 mph77%30.04 "Hg10 mi
1:20 am52 °FClear.5 mph82%30.04 "Hg10 mi
12:50 am54 °FClear.5 mph77%30.04 "Hg10 mi
12:20 am55 °FClear.5 mph77%30.04 "Hg10 mi
11:50 pm
Thu, Apr 27
55 °FClear.2 mph77%30.04 "Hg10 mi
11:20 pm57 °FClear.3 mph72%30.04 "Hg10 mi
10:50 pm59 °FClear.2 mph63%30.04 "Hg10 mi
10:20 pm61 °FClear.5 mph63%30.04 "Hg10 mi
9:50 pm61 °FClear.5 mph63%30.04 "Hg10 mi
9:20 pm63 °FClear.6 mph64%30.01 "Hg10 mi
8:50 pm63 °FClear.2 mph64%30.01 "Hg10 mi
8:20 pm64 °FClear.7 mph64%30.01 "Hg10 mi
7:50 pm66 °FSunny.8 mph60%30.01 "Hg10 mi
7:20 pm68 °FSunny.7 mph56%29.98 "Hg10 mi
6:50 pm72 °FSunny.9 mph50%29.98 "Hg10 mi
6:20 pm72 °FSunny.14 mph47%29.98 "Hg10 mi
5:50 pm73 °FSunny.13 mph44%29.98 "Hg10 mi
5:20 pm73 °FSunny.12 mph44%29.98 "Hg10 mi
4:50 pm75 °FSunny.13 mph39%29.98 "Hg10 mi
4:20 pm75 °FSunny.13 mph36%29.98 "Hg10 mi
3:50 pm75 °FSunny.12 mph36%30.01 "Hg10 mi
3:20 pm75 °FSunny.13 mph36%30.01 "Hg10 mi
2:50 pm75 °FSunny.10 mph36%30.01 "Hg10 mi
2:20 pm73 °FSunny.10 mph38%30.04 "Hg10 mi
1:50 pm68 °FSunny.9 mph56%30.04 "Hg10 mi
1:20 pm66 °FSunny.9 mph52%30.04 "Hg10 mi
Weather by CustomWeather, © 2017

See weather overviewHow to use our weather pages